Time,TemperatureF,DewpointF,PressureIn,WindDirection,WindDirectionDegrees,WindSpeedMPH,WindSpeedGustMPH,Humidity,HourlyPrecipIn,Conditions,Clouds,dailyrainin,SoftwareType,DateUTC
2013-12-04 00:22:00,65.0,65.0,29.76,NNE,16,0.0,1.0,99,0.00,,,0.00,,2013-12-04 06:22:00,
2013-12-04 00:42:00,65.0,65.0,29.76,NNE,16,0.0,0.0,99,0.00,,,0.00,,2013-12-04 06:42:00,
2013-12-04 00:52:00,65.0,65.0,29.76,NNE,16,0.0,0.0,99,0.00,,,0.00,,2013-12-04 06:52:00,
2013-12-04 01:22:00,66.0,66.0,29.76,East,88,0.0,1.0,99,0.00,,,0.00,,2013-12-04 07:22:00,
2013-12-04 01:42:00,66.0,66.0,29.76,NNW,336,0.0,1.0,99,0.00,,,0.00,,2013-12-04 07:42:00,
2013-12-04 01:52:00,67.0,67.0,29.76,ESE,119,0.0,1.0,99,0.00,,,0.00,,2013-12-04 07:52:00,
2013-12-04 02:11:00,67.0,67.0,29.76,SW,235,0.0,3.0,99,0.00,,,0.00,,2013-12-04 08:11:00,
2013-12-04 02:21:00,67.0,67.0,29.76,NNW,341,0.0,2.0,99,0.00,,,0.00,,2013-12-04 08:21:00,
2013-12-04 02:42:00,67.0,67.0,29.76,SE,143,0.0,2.0,99,0.00,,,0.00,,2013-12-04 08:42:00,
2013-12-04 02:52:00,67.0,67.0,29.76,ENE,71,0.0,1.0,99,0.00,,,0.00,,2013-12-04 08:52:00,
2013-12-04 03:22:00,67.0,67.0,29.75,East,84,0.0,1.0,100,0.00,,,0.00,,2013-12-04 09:22:00,
2013-12-04 03:53:00,67.0,67.0,29.75,West,277,0.0,1.0,100,0.00,,,0.00,,2013-12-04 09:53:00,
2013-12-04 04:12:00,67.0,67.0,29.75,NNW,343,0.0,2.0,100,0.00,,,0.00,,2013-12-04 10:12:00,
2013-12-04 04:23:00,67.0,67.0,29.76,NNW,341,0.0,2.0,100,0.00,,,0.00,,2013-12-04 10:23:00,
2013-12-04 04:42:00,67.0,67.0,29.76,WNW,287,0.0,1.0,100,0.00,,,0.00,,2013-12-04 10:42:00,
2013-12-04 04:53:00,67.0,67.0,29.76,WNW,288,0.0,1.0,100,0.00,,,0.00,,2013-12-04 10:53:00,
2013-12-04 05:22:00,67.0,67.0,29.77,WNW,288,0.0,0.0,100,0.00,,,0.00,,2013-12-04 11:22:00,
2013-12-04 05:42:00,67.0,67.0,29.77,WNW,288,0.0,0.0,100,0.00,,,0.00,,2013-12-04 11:42:00,
2013-12-04 05:53:00,67.0,67.0,29.77,WNW,299,0.0,1.0,100,0.00,,,0.00,,2013-12-04 11:53:00,
2013-12-04 06:22:00,67.0,67.0,29.78,WNW,299,0.0,0.0,100,0.00,,,0.00,,2013-12-04 12:22:00,
2013-12-04 06:42:00,67.0,67.0,29.79,WNW,299,0.0,0.0,100,0.00,,,0.00,,2013-12-04 12:42:00,
2013-12-04 06:52:00,67.0,67.0,29.80,WNW,299,0.0,0.0,100,0.00,,,0.00,,2013-12-04 12:52:00,
2013-12-04 07:22:00,67.0,67.0,29.80,NW,306,0.0,1.0,100,0.00,,,0.00,,2013-12-04 13:22:00,
2013-12-04 07:42:00,67.0,67.0,29.81,ESE,103,0.0,1.0,100,0.00,,,0.00,,2013-12-04 13:42:00,
2013-12-04 07:52:00,67.0,67.0,29.81,SSE,148,0.0,1.0,100,0.00,,,0.00,,2013-12-04 13:52:00,
2013-12-04 08:12:00,67.0,67.0,29.82,SSE,148,0.0,0.0,100,0.00,,,0.00,,2013-12-04 14:12:00,
2013-12-04 08:22:00,67.0,67.0,29.83,SSE,148,0.0,0.0,100,0.00,,,0.00,,2013-12-04 14:22:00,
2013-12-04 08:42:00,68.0,68.0,29.83,West,273,0.0,1.0,100,0.00,,,0.00,,2013-12-04 14:42:00,
2013-12-04 08:52:00,68.0,68.0,29.83,West,273,0.0,0.0,100,0.00,,,0.00,,2013-12-04 14:52:00,
2013-12-04 09:12:00,68.0,68.0,29.84,West,273,0.0,0.0,100,0.00,,,0.00,,2013-12-04 15:12:00,
2013-12-04 09:22:00,68.0,68.0,29.85,SSE,157,0.0,0.0,100,0.00,,,0.00,,2013-12-04 15:22:00,
2013-12-04 09:43:00,69.0,69.0,29.85,SSE,157,0.0,1.0,100,0.00,,,0.00,,2013-12-04 15:43:00,
2013-12-04 09:53:00,69.0,69.0,29.86,SSE,157,0.0,1.0,100,0.00,,,0.00,,2013-12-04 15:53:00,
2013-12-04 10:23:00,71.0,71.0,29.86,SSE,157,0.0,1.0,100,0.00,,,0.00,,2013-12-04 16:23:00,
2013-12-04 10:43:00,71.0,71.0,29.86,WSW,250,0.0,1.0,100,0.00,,,0.00,,2013-12-04 16:43:00,
2013-12-04 10:53:00,72.0,72.0,29.86,SE,138,0.0,1.0,100,0.00,,,0.00,,2013-12-04 16:53:00,
2013-12-04 11:22:00,72.0,72.0,29.85,ESE,119,0.0,1.0,100,0.00,,,0.00,,2013-12-04 17:22:00,
2013-12-04 11:42:00,73.0,73.0,29.85,SE,142,0.0,5.0,100,0.00,,,0.00,,2013-12-04 17:42:00,
2013-12-04 11:53:00,73.0,73.0,29.84,NW,320,0.0,4.0,100,0.00,,,0.00,,2013-12-04 17:53:00,
2013-12-04 12:22:00,74.0,74.0,29.82,ENE,74,0.0,6.0,99,0.00,,,0.00,,2013-12-04 18:22:00,
2013-12-04 12:42:00,74.0,74.0,29.82,SW,225,1.0,4.0,99,0.00,,,0.00,,2013-12-04 18:42:00,
2013-12-04 12:52:00,76.0,74.0,29.81,NE,51,0.0,5.0,95,0.00,,,0.00,,2013-12-04 18:52:00,
2013-12-04 13:11:00,76.0,74.0,29.80,ENE,60,0.0,4.0,93,0.00,,,0.00,,2013-12-04 19:11:00,
2013-12-04 13:21:00,77.0,74.0,29.80,NNW,333,0.0,7.0,89,0.00,,,0.00,,2013-12-04 19:21:00,
2013-12-04 13:52:00,77.0,74.0,29.78,SE,146,0.0,3.0,89,0.00,,,0.00,,2013-12-04 19:52:00,
2013-12-04 14:12:00,77.0,74.0,29.78,SE,136,0.0,2.0,89,0.00,,,0.00,,2013-12-04 20:12:00,
2013-12-04 14:22:00,77.0,74.0,29.78,South,171,0.0,1.0,89,0.00,,,0.00,,2013-12-04 20:22:00,
2013-12-04 14:42:00,77.0,73.0,29.78,SSW,211,0.0,2.0,88,0.00,,,0.00,,2013-12-04 20:42:00,
2013-12-04 14:52:00,76.0,73.0,29.78,SE,136,0.0,2.0,89,0.00,,,0.00,,2013-12-04 20:52:00,
2013-12-04 15:22:00,76.0,73.0,29.78,WNW,296,1.0,4.0,89,0.00,,,0.00,,2013-12-04 21:22:00,
2013-12-04 15:44:00,76.0,73.0,29.77,SE,135,0.0,7.0,89,0.00,,,0.00,,2013-12-04 21:44:00,
2013-12-04 15:54:00,76.0,73.0,29.78,East,98,0.0,3.0,89,0.00,,,0.00,,2013-12-04 21:54:00,
2013-12-04 16:23:00,75.0,72.0,29.78,SE,132,0.0,2.0,91,0.00,,,0.00,,2013-12-04 22:23:00,
2013-12-04 16:43:00,75.0,72.0,29.78,SE,132,0.0,1.0,91,0.00,,,0.00,,2013-12-04 22:43:00,
2013-12-04 16:53:00,74.0,71.0,29.79,SE,131,0.0,1.0,91,0.00,,,0.00,,2013-12-04 22:53:00,
2013-12-04 17:12:00,74.0,72.0,29.79,SE,134,0.0,2.0,92,0.00,,,0.00,,2013-12-04 23:12:00,
2013-12-04 17:22:00,74.0,72.0,29.79,SE,144,0.0,1.0,92,0.00,,,0.00,,2013-12-04 23:22:00,
2013-12-04 17:53:00,73.0,71.0,29.80,SE,129,0.0,1.0,93,0.00,,,0.00,,2013-12-04 23:53:00,
2013-12-04 18:11:00,73.0,71.0,29.80,ESE,116,0.0,1.0,94,0.00,,,0.00,,2013-12-05 00:11:00,
2013-12-04 18:22:00,72.0,70.0,29.80,SE,140,0.0,2.0,95,0.00,,,0.00,,2013-12-05 00:22:00,
2013-12-04 18:42:00,72.0,70.0,29.80,SE,138,0.0,2.0,95,0.00,,,0.00,,2013-12-05 00:42:00,
2013-12-04 18:52:00,72.0,71.0,29.81,NNW,331,0.0,2.0,96,0.00,,,0.00,,2013-12-05 00:52:00,
2013-12-04 19:21:00,71.0,70.0,29.81,SSW,210,0.0,1.0,96,0.00,,,0.00,,2013-12-05 01:21:00,
2013-12-04 19:42:00,71.0,70.0,29.82,ESE,111,0.0,1.0,96,0.00,,,0.00,,2013-12-05 01:42:00,
2013-12-04 19:52:00,71.0,70.0,29.82,SE,130,0.0,1.0,97,0.00,,,0.00,,2013-12-05 01:52:00,
2013-12-04 20:22:00,71.0,70.0,29.83,SSE,147,0.0,5.0,97,0.00,,,0.00,,2013-12-05 02:22:00,
2013-12-04 21:12:00,71.0,70.0,29.84,SSE,157,0.0,1.0,98,0.00,,,0.00,,2013-12-05 03:12:00,
2013-12-04 21:22:00,71.0,70.0,29.85,WNW,291,0.0,1.0,98,0.00,,,0.00,,2013-12-05 03:22:00,
2013-12-04 21:54:00,71.0,70.0,29.85,SE,135,0.0,2.0,98,0.00,,,0.00,,2013-12-05 03:54:00,
2013-12-04 22:23:00,72.0,71.0,29.84,ESE,117,0.0,5.0,98,0.00,,,0.00,,2013-12-05 04:23:00,
2013-12-04 22:53:00,72.0,71.0,29.86,South,174,0.0,1.0,98,0.00,,,0.00,,2013-12-05 04:53:00,
2013-12-04 23:13:00,72.0,71.0,29.87,NNW,334,1.0,5.0,98,0.00,,,0.00,,2013-12-05 05:13:00,
2013-12-04 23:23:00,72.0,72.0,29.87,East,90,0.0,1.0,99,0.00,,,0.00,,2013-12-05 05:23:00,
2013-12-04 23:43:00,72.0,72.0,29.87,East,90,0.0,1.0,99,0.00,,,0.00,,2013-12-05 05:43:00,
2013-12-04 23:53:00,72.0,72.0,29.86,SE,140,0.0,1.0,99,0.00,,,0.00,,2013-12-05 05:53:00,